Regional Weather Roundup
Issued by NWS

Home | Current Version | Previous Version | Graphics & Text | Print | Product List | Glossary On
Versions: 1 2 3 4 5 6 7 8 9 10 11 12 13 14 15 16 17 18 19 20 21 22 23 24 25 26 27 28 29 30 31 32 33 34 35 36 37 38 39 40 41 42 43 44 45 46 47 48 49 50
000
ASUS43 KMKX 250900
RWRWI

WISCONSIN REGIONAL WEATHER ROUNDUP
NATIONAL WEATHER SERVICE MILWAUKEE/SULLIVAN WI
400 AM CDT FRI MAY 25 2018

NOTE: "FAIR" INDICATES FEW OR NO CLOUDS BELOW 12,000 FEET WITH NO
SIGNIFICANT WEATHER AND/OR OBSTRUCTIONS TO VISIBILITY.

WIZ001-002-006>008-014>016-023>028-251000-
NORTHWEST WISCONSIN

CITY           SKY/WX    TMP DP  RH WIND       PRES   REMARKS
SUPERIOR ARPT  FAIR      50  50 100 CALM      29.78S FOG
ASHLAND        FAIR      63  60  90 S6        29.78F
HAYWARD        FAIR      69  61  75 S3        29.81F
SIREN          FAIR      70  59  68 S9        29.82R
CUMBERLAND     FAIR      64  59  82 SW9       29.85R
RICE LAKE      MOCLDY    66  62  85 SW7       29.86R
CHETEK         FAIR      65  62  88 SW5       29.84R
LADYSMITH      FAIR      64  62  91 CALM      29.85F
EAU CLAIRE     NOT AVBL
MENOMONIE      FAIR      66  64  93 S3        29.87F
NEW RICHMOND   RAIN      66  60  81 SW16G23   29.90R
OSCEOLA        LGT RAIN  69  61  76 S17G25    29.88R
$$

WIZ003>005-009-010-017-018-251000-
NORTH CENTRAL WISCONSIN

CITY           SKY/WX    TMP DP  RH WIND       PRES   REMARKS
MANITOWISH WTR FAIR      63  63 100 CALM      29.85F
ARBOR VITAE    MOCLDY    65  62  89 S6        29.85F
WOODRUFF       MOCLDY    65  62  89 S6        29.85F
RHINELANDER    FAIR      67  61  81 SW7       29.87F
EAGLE RIVER    MOCLDY    64  63  96 SW5       29.87F
LAND O LAKES   FAIR      64  62  95 SW3       29.88F
PHILLIPS       FAIR      64  61  90 S6        29.85F
TOMAHAWK       FAIR      61  57  84 CALM      29.88F
MEDFORD        FAIR      65  58  76 S10       29.85F
MERRILL        FAIR      64  61  88 SE6       29.87F
$$

WIZ029-030-035-036-043>047-251000-
CENTRAL WISCONSIN

CITY           SKY/WX    TMP DP  RH WIND       PRES   REMARKS
WAUSAU         FAIR      65  62  90 SE7       29.85F
MOSINEE        FAIR      64  61  88 S5        29.91F
MARSHFIELD     FAIR      64  61  90 SW5       29.88F
STEVENS POINT  FAIR      67  62  83 S6        29.91F
WAUPACA        FAIR      70  62  75 S6        29.91F
WAUTOMA        FAIR      62  60  93 CALM      29.92F
WISC RAPIDS    FAIR      67  62  84 S6        29.90F
CAMP DOUGLAS   NOT AVBL
$$

WIZ011>013-019>022-031-037>040-048>050-251000-
NORTHEAST WISCONSIN

CITY           SKY/WX    TMP DP  RH WIND       PRES   REMARKS
ANTIGO         FAIR      64  61  88 SW7       29.91F
SHAWANO        FAIR      70  61  73 CALM      29.89F
OCONTO         FAIR      61  57  88 CALM      29.88F
STURGEON BAY   FAIR      65  57  75 SE3       29.89F
GREEN BAY      FAIR      68  60  75 S5        29.90F
MANITOWOC      FAIR      66  55  67 S6        29.92F
APPLETON       FAIR      70  55  60 SW10      29.91S
CLINTONVILLE   FAIR      70  60  69 SW5       29.90S
OSHKOSH        FAIR      68  59  73 SW9       29.91F
$$

WIZ032>034-041-042-053>061-251000-
SOUTHWEST WISCONSIN

CITY           SKY/WX    TMP DP  RH WIND       PRES   REMARKS
LA CROSSE      FAIR      73  65  75 S8        29.87F
SPARTA         FAIR      63  61  94 CALM      29.90F
VIROQUA        FAIR      69  64  84 S6        29.93F
BOSCOBEL       FAIR      64  62  93 CALM      29.92F FOG
PRAIRIE DU CHI FAIR      67  60  78 CALM      29.92S
PLATTEVILLE    FAIR      67  62  83 S5        29.97S
$$

WIZ056-057-062-063-064-067-068-251000-
SOUTH CENTRAL WISCONSIN

CITY           SKY/WX    TMP DP  RH WIND       PRES   REMARKS
REEDSBURG      FAIR      70  61  72 SW5       29.92F
BARABOO/DELLS  FAIR      70  58  66 SW8       29.93F
LONE ROCK      NOT AVBL
MINERAL POINT  FAIR      70  61  73 S6        29.96F
MADISON        FAIR      69  60  73 S6        29.93F
MIDDLETON      FAIR      72  59  62 SW8       29.95S
WATERTOWN      FAIR      65  60  84 S5        29.95F
MONROE         FAIR      66  57  72 S8        29.96F
JANESVILLE     FAIR      64  55  72 CALM      29.96F
$$

WIZ051-052-058>065-066-070>072-251000-
SOUTHEAST WISCONSIN

CITY           SKY/WX    TMP DP  RH WIND       PRES   REMARKS
MILWAUKEE      FAIR      67  54  63 SW7       29.95F
WAUKESHA       FAIR      64  52  63 S5        29.98S
MILWAUKEE/TIMM FAIR      68  48  49 SW5       29.97F
RACINE         FAIR      68  52  56 SW9       29.97F
BURLINGTON     FAIR      58  56  92 CALM      29.97F
KENOSHA        FAIR      67  52  58 SW7       29.97F
FOND DU LAC    FAIR      68  57  68 SW7       29.92F
SHEBOYGAN      FAIR      62  54  74 SW6       29.93F
WEST BEND      FAIR      66  52  59 S7        29.95F
JUNEAU         FAIR      65  58  76 S5        29.96F
$$

LSZ147-162-251000-
LAKE SUPERIOR

STATION/POSITION TIME  TEMP    WIND        PRES    WAVE
                       AIR SEA DIR/SP/G            HT/PER
                 (UTC) (F)     (DEG/KT/KT) (MB)    (FT/S)
W MID LAKE BUOY  0750   49 36   80/  6/  6 1008.5F   0
DEVILS ISLAND    0800   45     220/  9/  9 1009.2R
SAXON HARBOR     0840   73     190/  6/ 11 1007.5S
$$

LMZ867-665-643>646-251000-
LAKE MICHIGAN

STATION/POSITION TIME  TEMP    WIND        PRES    WAVE
                       AIR SEA DIR/SP/G            HT/PER
                 (UTC) (F)     (DEG/KT/KT) (MB)    (FT/S)
N MID LAKE BUOY  0840   44 38  180/ 10/ 12 1011.9F
NORTHPORT PIER   0840   60     280/  2/  4 1011.9F
KEWAUNEE LAKESHO 0824   58     190/  8/  9 1012.1
SHEBOYGAN LAKESH 0800   68     210/ 10/ 11 1013.7F
PORT WASHINGTON  0830   61     190/  3/  5 1014.9F
ATWATER BUOY     0807   57 49  180/  6/  8 1014.5    1
MILWAUKEE LAKESH 0830   71     220/ 10/ 12   N/A
S MID LAKE BUOY  0750   50 39  170/ 10/ 10 1015.9F   0
KENOSHA   LAKESH 0800   67                 1014.9
$$

TC  - TEMPERATURE IN CELSIUS
VSB - VISIBILITY IN STATUTE MILES
WCI - WIND CHILL INDEX
HX  - HEAT INDEX




USA.gov is the U.S. government's official web portal to all federal, state and local government web resources and services.